STARLINK-2009 (47633 NORAD) Tracking and Keplerian Element Data

This shows tracking and keplerian element data for the satellite.

Feedback or suggestion? Click here.




ElementValue
Catalog47633
NameSTARLINK-2009
Epoch Orbit177
Epoch Day59.91667824
Epoch Year2021
RAAN38.6835
Inclination53.0517
Eccentricity0.0001155
Argument of Perigee82.1583
Mean Anonmoly127.9666
Mean Motion15.72700594
Decay Rate-0.00987221
L11 47633U 21012P 21059.91667824 -.00987221 00000-0 -79300-2 0 9991
L22 47633 53.0517 38.6835 0001155 82.1583 127.9666 15.72700594 1770

Live tracking and technical data element details for STARLINK-2009 (NORAD 47633). STARLINK-2009 can be tracked NOW for your location showing map with azimuth and elevation plus other details from your city location.

Track the satellite on the map from your city or location and see movement details for azimuth, elevation, latitude, longitude, range, height, and movement on the map or in text.







IsCatalogInMostPopularTable: catalog: 47633, numindb: 4
Update: records affected: 1



GetName: 47633 STARLINK-2009

Hit Count: updated at: Mon, 01 Mar 2021 15:32:50 GMT